Regional Weather Roundup
Issued by NWS Little Rock, AR

Home | Current Version | Previous Version | Graphics & Text | Print | Product List | Glossary On
Versions: 1 2 3 4 5 6 7 8 9 10 11 12 13 14 15 16 17 18 19 20 21 22 23 24 25 26 27 28 29 30 31 32 33 34 35 36 37 38 39 40 41 42 43 44 45 46 47 48 49 50
000
ASUS44 KLZK 271705
RWRLZK

WEATHER ROUNDUP FOR ARKANSAS
NATIONAL WEATHER SERVICE LITTLE ROCK AR
1200 PM CDT WED MAY 27 2015

NOTE: "FAIR" INDICATES FEW OR NO CLOUDS BELOW 12,000 FEET WITH NO
SIGNIFICANT WEATHER AND/OR OBSTRUCTIONS TO VISIBILITY.

ARZ001-003-010-029-271800-
NORTHWEST ARKANSAS

CITY           SKY/WX    TMP DP  RH WIND       PRES   REMARKS
FAYETTEVILLE   SUNNY     78  66  66 MISG      30.12F
FORT SMITH     SUNNY     82  65  56 NE5       30.09F
HARRISON       SUNNY     79  61  53 VRB5      30.14R
BENTONVILLE    SUNNY     79  63  57 S3        30.14S
ROGERS         SUNNY     77  64  64 CALM      30.14S
SILOAM SPGS    SUNNY     79  63  57 W5        30.13F
HIGHFILL       SUNNY     79  65  62 S6        30.13S
SPRINGDALE     SUNNY     79  63  57 SE9       30.15S
$$

ARZ004-005-016-271800-
NORTH CENTRAL ARKANSAS

CITY           SKY/WX    TMP DP  RH WIND       PRES   REMARKS
BATESVILLE     CLOUDY    81  70  69 S8        30.11S
FLIPPIN        PTSUNNY   81  66  61 CALM      30.10S
MTN HOME       PTSUNNY   81  66  60 CALM      30.12R
$$

ARZ040-041-271800-
WEST CENTRAL ARKANSAS

CITY           SKY/WX    TMP DP  RH WIND       PRES   REMARKS
MENA           MOSUNNY   82  63  51 W6        30.13S
MOUNT IDA      PTSUNNY   80  63  55 VRB6      30.10F
$$

ARZ009-017-025-026-028-271800-
NORTHEAST ARKANSAS

CITY           SKY/WX    TMP DP  RH WIND       PRES   REMARKS
CORNING          N/A     73  68  83 SE9       30.14R
JONESBORO      CLOUDY    70  68  93 NE7       30.14S
NEWPORT        CLOUDY    81  70  69 S16       30.13S
WALNUT RIDGE   CLOUDY    77  70  78 SE9       30.13R
BLYTHEVILLE    RAIN      70  68  93 CALM      30.16R FOG
$$

ARZ022-023-033-042-044-271800-
CENTRAL ARKANSAS

CITY           SKY/WX    TMP DP  RH WIND       PRES   REMARKS
LITTLE ROCK    CLOUDY    80  68  66 S9        30.12F
N LITTLE ROCK  PTSUNNY   77  71  82 SE8       30.12F
JACKSONVILLE   CLOUDY    77  70  78 S8        30.12F
SEARCY         CLOUDY    78  70  76 S13       30.15S
HOT SPRINGS    PTSUNNY   80  63  55 SW5       30.12S
RUSSELLVILLE   PTSUNNY   80  66  62 S6        30.10S
CLINTON        FAIR      82  70  65 S5        30.12F HX  86
$$

ARZ036-271800-
EAST ARKANSAS

CITY           SKY/WX    TMP DP  RH WIND       PRES   REMARKS
WEST MEMPHIS   CLOUDY    71  69  93 SW6       30.17R
$$

ARZ050-053-066-070-073-271800-
SOUTHWEST ARKANSAS

CITY           SKY/WX    TMP DP  RH WIND       PRES   REMARKS
ARKADELPHIA    FAIR      81  69  66 CALM      30.13S
CAMDEN         PTSUNNY   82  66  57 CALM      30.12F HX  85
TEXARKANA      PTSUNNY   80  67  64 SE6       30.13R
EL DORADO      PTSUNNY   79  66  64 E8        30.14R
DE QUEEN       MOSUNNY   80  63  55 E16       30.10S
$$

ARZ056-057-069-271800-
SOUTHEAST ARKANSAS

CITY           SKY/WX    TMP DP  RH WIND       PRES   REMARKS
PINE BLUFF     CLOUDY    76  69  79 SE14      30.15S
STUTTGART      CLOUDY    75  64  69 S15       30.15S
MONTICELLO     CLOUDY    69  69 100 E9        30.16F

$$




USA.gov is the U.S. government's official web portal to all federal, state and local government web resources and services.